FW4125 Weather Reports


Display with metric or nautical units.
time (UTC)temp
F
wind
direction
speed
MPH
gust
MPH
rain 1hr
in
rain 24hr
in
rain mn
in
humidity
%
barometer
mb
20260901190112 98 100 0.0 2.0 0.00 0.03 0.02 31 873.6
20260901184559 98 100 1.0 4.0 0.00 0.03 0.02 32 873.6
20260901183056 97 127 0.0 4.0 0.00 0.03 0.02 35 873.6
20260901181556 96 223 0.0 3.0 0.00 0.03 0.02 35 873.6
20260901180057 95 166 0.0 4.0 0.00 0.03 0.02 35 873.6
20260901174615 94 150 1.0 4.0 0.00 0.03 0.02 36 873.6
20260901173058 93 245 1.0 5.0 0.00 0.03 0.02 37 873.6
20260901171559 91 266 2.0 6.0 0.00 0.03 0.02 39 873.6
20260901170059 89 222 0.0 4.0 0.00 0.03 0.02 44 873.6
20260901164555 88 216 1.0 3.0 0.00 0.03 0.02 45 873.6
20260901163054 86 223 0.0 4.0 0.00 0.03 0.02 48 873.6
20260901161605 85 261 0.0 3.0 0.00 0.03 0.02 51 873.6
20260901160043 84 269 0.0 3.0 0.00 0.03 0.02 53 873.6
20260901154544 83 235 1.0 3.0 0.00 0.03 0.02 55 873.6
20260901153044 81 259 0.0 3.0 0.00 0.03 0.02 58 873.6
20260901151539 80 259 0.0 3.0 0.00 0.03 0.02 59 873.6
20260901150043 79 277 0.0 2.0 0.00 0.03 0.02 61 873.6
20260901144547 78 275 0.0 3.0 0.00 0.03 0.02 63 873.6
20260901143100 77 254 0.0 2.0 0.00 0.03 0.02 64 873.6
20260901141607 77 210 0.0 0.0 0.00 0.03 0.02 65 873.6
20260901140056 77 210 0.0 0.0 0.00 0.03 0.02 66 873.6
20260901134558 76 224 0.0 0.0 0.00 0.03 0.02 66 873.6
20260901133107 76 224 0.0 0.0 0.01 0.03 0.02 65 873.6
20260901131603 75 224 0.0 0.0 0.01 0.03 0.02 64 873.6
20260901124505 75 224 0.0 0.0 0.01 0.03 0.02 62 873.6
20260901123008 76 224 0.0 0.0 0.00 0.02 0.01 61 873.6
20260901121509 76 224 0.0 0.0 0.00 0.02 0.01 60 873.6
20260901120010 77 224 0.0 0.0 0.00 0.02 0.01 59 873.6
20260901114510 78 224 0.0 0.0 0.00 0.02 0.01 57 873.6
20260901113012 79 224 0.0 0.0 0.00 0.03 0.01 56 873.6
20260901111517 79 224 0.0 0.0 0.00 0.03 0.01 55 873.6
20260901110015 80 231 0.0 0.0 0.00 0.03 0.01 55 873.6
20260901104538 80 231 0.0 0.0 0.00 0.03 0.01 54 873.6
20260901103019 80 231 0.0 0.0 0.00 0.03 0.01 54 873.6
20260901101522 80 231 0.0 0.0 0.00 0.03 0.01 54 873.6
20260901100024 80 231 0.0 2.0 0.00 0.03 0.01 54 873.6
20260901094521 80 231 0.0 3.0 0.00 0.03 0.01 55 873.6
20260901093022 80 230 1.0 4.0 0.00 0.03 0.01 56 873.6
20260901091521 79 234 1.0 4.0 0.00 0.03 0.01 57 873.6
20260901090028 77 187 0.0 2.0 0.00 0.03 0.01 59 873.6
20260901084523 76 186 0.0 2.0 0.00 0.03 0.01 61 873.6
20260901083022 75 185 0.0 0.0 0.00 0.03 0.01 63 873.6
20260901081526 74 105 0.0 0.0 0.01 0.03 0.01 64 873.6
20260901080031 74 105 0.0 0.0 0.01 0.03 0.01 63 873.6
20260901074526 75 105 0.0 0.0 0.01 0.03 0.01 63 873.6
20260901073032 75 105 0.0 0.0 0.01 0.03 0.01 62 873.6
20260901071536 75 104 0.0 1.0 0.00 0.02 0.00 62 873.6
20260901070036 75 100 0.0 0.0 0.00 0.02 0.00 62 873.6
20260901064540 75 100 0.0 0.0 0.00 0.02 0.00 61 873.6
20260901063044 75 100 0.0 0.0 0.00 0.02 0.00 60 873.6
20260901061547 75 100 0.0 0.0 0.00 0.02 0.00 59 873.6
20260901060048 75 100 0.0 0.0 0.00 0.02 0.00 58 873.6
20260901054550 76 100 0.0 0.0 0.00 0.02 0.00 57 873.6
20260901053111 76 100 0.0 0.0 0.01 0.03 0.02 54 873.6
20260901051556 78 100 0.0 0.0 0.01 0.03 0.02 51 873.6
20260901050056 80 100 0.0 0.0 0.01 0.03 0.02 48 873.6
20260901044606 82 100 0.0 1.0 0.01 0.03 0.02 46 873.6
20260901043124 82 100 0.0 0.0 0.00 0.03 0.01 43 873.6
20260901041506 83 100 0.0 0.0 0.00 0.03 0.01 41 873.6
20260901040010 83 100 0.0 0.0 0.00 0.03 0.01 40 873.6
20260901034512 84 100 0.0 0.0 0.00 0.03 0.01 39 873.6
20260901033015 84 100 0.0 0.0 0.00 0.03 0.01 38 873.6
20260901031530 85 100 0.0 0.0 0.00 0.03 0.01 37 873.6
20260901030020 86 100 0.0 0.0 0.00 0.03 0.01 37 873.6
20260901024524 86 100 0.0 0.0 0.00 0.03 0.01 36 873.6
20260901023028 87 100 0.0 0.0 0.00 0.03 0.01 36 873.6
20260901021525 88 114 0.0 0.0 0.00 0.03 0.01 34 873.6
20260901020032 89 118 0.0 0.0 0.00 0.03 0.01 32 873.6
20260901014530 90 104 0.0 0.0 0.00 0.03 0.01 31 873.6
20260901013041 91 100 0.0 0.0 0.00 0.03 0.01 30 873.6
20260901011539 92 100 0.0 0.0 0.00 0.03 0.01 29 873.6
20260901010043 94 100 0.0 0.0 0.00 0.03 0.01 27
20260901004544 95 100 0.0 0.0 0.00 0.03 0.01 26
20260901003051 96 100 0.0 0.0 0.00 0.03 0.01 24
20260901001604 97 100 0.0 1.0 0.00 0.03 0.01 23
20260901000050 98 100 0.0 1.0 0.00 0.03 0.01 22
20260831234556 98 100 0.0 2.0 0.00 0.03 0.01 22
20260831233054 99 124 0.0 3.0 0.00 0.03 0.01 21
20260831231555 99 168 1.0 4.0 0.00 0.03 0.01 21
20260831230057 100 107 2.0 4.0 0.00 0.03 0.01 20
20260831224559 100 171 1.0 4.0 0.00 0.03 0.01 21
20260831223101 101 104 0.0 3.0 0.00 0.03 0.01 19
20260831221503 101 172 0.0 4.0 0.00 0.03 0.01 19
20260831220004 101 177 0.0 5.0 0.00 0.03 0.01 20
20260831214506 102 150 2.0 8.0 0.00 0.03 0.01 19
20260831213011 102 169 3.0 8.0 0.00 0.03 0.01 19
20260831211511 102 185 1.0 6.0 0.00 0.03 0.01 20
20260831210007 102 167 1.0 4.0 0.00 0.03 0.01 21
20260831204506 101 237 3.0 7.0 0.00 0.03 0.01 21
20260831203003 101 108 1.0 5.0 0.00 0.03 0.01 22
20260831201504 101 187 2.0 7.0 0.00 0.03 0.01 20
20260831200004 100 241 2.0 6.0 0.00 0.03 0.01 22
20260831194506 100 169 0.0 6.0 0.00 0.03 0.01 25
20260831193009 99 90 1.0 4.0 0.00 0.03 0.01 23
20260831191514 100 225 1.0 4.0 0.00 0.03 0.01 23